Poplar Bluff, MO

1:45 AM CST on December 16, 2019 (GMT -0600)
Poplar Bluff Municipal

Weather History for KPOF - November, 2019

Change the Weather History Date:

Wednesday, November 20, 2019

  Actual Average Record
Temperature  
Mean Temperature 49 °F 46 °F  
Max Temperature 65 °F 55 °F 77 °F (1953)
Min Temperature 33 °F 36 °F 18 °F (1937)
Degree Days  
Heating Degree Days 16 20  
Month to date heating degree days 479 312  
Since 1 July heating degree days 731 565  
Cooling Degree Days 0 0  
Month to date cooling degree days 0 0  
Year to date cooling degree days 1830 1561  
Moisture  
Dew Point 37 °F    
Average Humidity 64    
Maximum Humidity 92    
Minimum Humidity 40    
Precipitation  
Precipitation 0.00 in 0.16 in 3.34 in (1931)
Month to date precipitation 2.90 3.50  
Year to date precipitation 63.63 42.71  
Sea Level Pressure  
Sea Level Pressure 30.13 in    
Wind  
Wind Speed 4 mph ()    
Max Wind Speed 13 mph    
Max Gust Speed 19 mph    
Visibility 10.0 miles    
Events      
T = Trace of Precipitation, MM = Missing Value Source: Averaged Metar Reports

Daily Weather History Graph

Daily Weather History Graph

Search for Another Location

Airport or City:

Astronomy

Nov. 20, 2019 Rise Set
Actual Time 6:44 AM CST 4:49 PM CST
Civil Twilight 6:16 AM CST 5:17 PM CST
Nautical Twilight 5:44 AM CST 5:48 PM CST
Astronomical Twilight 5:14 AM CST 6:19 PM CST
Moon No Moon Rise 1:32 PM CST (11/20)
Length of Visible Light 11h 00m
Length of Day
10h 04m
Last Quarter, 40% of the Moon is Illuminated
Nov 20
Last Quarter
Nov 26
New
Dec 4
First Quarter
Dec 11
Full
Dec 18
Last Quarter

Hourly Weather History & Observations

Time (CST) Temp. Windchill Dew Point Humidity Pressure Visibility Wind Dir Wind Speed Gust Speed Precip Events Conditions
12:53 AM 36.0 °F 33.3 °F 32.0 °F 86% 30.07 in 10.0 mi NNE 3.5 mph - N/A   Clear
1:53 AM 37.0 °F - 30.9 °F 79% 30.08 in 10.0 mi Calm Calm - N/A   Clear
2:53 AM 36.0 °F - 32.0 °F 86% 30.10 in 10.0 mi Calm Calm - N/A   Clear
3:53 AM 35.1 °F - 30.9 °F 85% 30.13 in 10.0 mi Calm Calm - N/A   Clear
4:53 AM 35.1 °F - 30.9 °F 85% 30.14 in 10.0 mi Calm Calm - N/A   Clear
5:53 AM 34.0 °F 29.8 °F 30.0 °F 85% 30.15 in 10.0 mi NNE 4.6 mph - N/A   Clear
6:53 AM 34.0 °F 31.0 °F 30.9 °F 89% 30.17 in 10.0 mi NE 3.5 mph - N/A   Clear
7:53 AM 39.9 °F 36.7 °F 33.1 °F 77% 30.19 in 10.0 mi NE 4.6 mph - N/A   Clear
8:53 AM 46.9 °F - 37.9 °F 71% 30.19 in 10.0 mi East 3.5 mph - N/A   Clear
9:53 AM 53.1 °F - 39.9 °F 61% 30.20 in 10.0 mi Variable 5.8 mph - N/A   Clear
10:53 AM 57.9 °F - 41.0 °F 53% 30.19 in 10.0 mi SE 5.8 mph - N/A   Clear
11:53 AM 62.1 °F - 39.9 °F 44% 30.17 in 10.0 mi SE 6.9 mph - N/A   Clear
12:53 PM 64.0 °F - 39.0 °F 40% 30.14 in 10.0 mi SE 12.7 mph - N/A   Clear
1:53 PM 64.0 °F - 39.9 °F 41% 30.12 in 10.0 mi SE 11.5 mph - N/A   Clear
2:53 PM 63.0 °F - 41.0 °F 45% 30.11 in 10.0 mi SE 6.9 mph - N/A   Clear
3:53 PM 62.1 °F - 43.0 °F 50% 30.12 in 10.0 mi SE 6.9 mph - N/A   Clear
4:53 PM 59.0 °F - 42.1 °F 53% 30.10 in 10.0 mi ESE 6.9 mph - N/A   Clear
5:53 PM 57.0 °F - 42.1 °F 57% 30.12 in 10.0 mi SE 5.8 mph - N/A   Clear
7:53 PM 55.9 °F - 41.0 °F 57% 30.14 in 10.0 mi SSE 6.9 mph - N/A   Clear
8:53 PM 55.0 °F - 39.9 °F 57% 30.12 in 10.0 mi SE 5.8 mph - N/A   Clear
9:53 PM 54.0 °F - 39.9 °F 59% 30.12 in 10.0 mi SSE 6.9 mph - N/A   Clear
10:53 PM 53.1 °F - 39.9 °F 61% 30.12 in 10.0 mi South 5.8 mph - N/A   Clear
11:53 PM 54.0 °F - 39.0 °F 57% 30.09 in 10.0 mi SSE 8.1 mph - N/A   Clear